"Pseudo-MPEC" for P10PDp9

Created 2019 Jul 12 21:07:09 UT using Find_Orb

Click here for an explanation of pseudo-MPECs

 
 Astrometry: 
     P10PDp9  C2019 07 06i4;+XNlMKHjAPDo\AKlodGE(#,T%Aw9u8DSf:E9fH)-x'V4H[ZryF51
     P10PDp9  C2019 07 06\=(_#6dx3WsKVkpAstrometryL*6tgwLnS`qitihV`Joc`3;skhxF51
     P10PDp9  C2019 07 06!niq@M.n:+@c9ZZ(U#Jecu5[redacted;HA/9/-:#Qfx$tlsYg\rF51
     P10PDp9 KC2019 07 08GpTVs%v6clickT1iY]xMF`A#7-!o[Hh;5$g6tvmG!i7/Sx3jQ`6k474
     P10PDp9 KC2019 07 08(n\iIQKhereq@@`D-ws)Dt^3for2GgeF0Q;Bwn$fUkiO1Pts'GVK474
     P10PDp9 KC2019 07 08A;8SbYsb3)9N)5Kx9lpI]_xoirhJ?xua9gnVFgrZpfb!4RoH=a2Q474
     P10PDp9 KC2019 07 08iT!.SexplanationQIFV?_)yVoa0JOb?/0]MqT_CnXQG/UG'M$F2474
     P10PDp9 ^C2019 07 12.50468319 51 17.616-36 30 31.38   ~7CHb 21.02GVNEOCP568
     P10PDp9 ^C2019 07 12.50592919 51 17.468-36 30 30.70   ~7CHb 21.00GVNEOCP568
     P10PDp9 ^C2019 07 12.50711319 51 17.333-36 30 30.09   ~7CHb 21.03GVNEOCP568

Station data:
(474) Mount John Observatory, Lake Tekapo  (S43.987388 E170.464960)  New
   Zealand.  Observers A. C. Gilmore, P. M. Kilmartin. Measurer P. M.
   Kilmartin. 1.0-m f/7.7 reflector + CCD.
(568) Mauna Kea  (N19.826116 W155.472200)  US/Hawaii.
(F51) Pan-STARRS 1, Haleakala  (N20.707235 W156.255910)  US/Hawaii.
   Observers N. Primak, A. Schultz, S. Watters, J. Thiel, T. Goggia. Measurer
   PS1 Science Consortium. 1.8-m Ritchey-Chrétien + CCD.

Orbital elements:  P10PDp9
   Perihelion 2020 Aug 27.628794 +/- 8.53 TT = 15:05:27 (JD 2459089.128794)
Epoch 2019 Jul 12.0 TT = JDT 2458676.5   Earth MOID: 0.6974   Ma: 0.0370
M 192.79752030 +/- 4.4              (J2000 ecliptic)          AutoNEOCP
n   0.40521282 +/- 0.00264          Peri.  146.53049 +/- 3.5
a   1.80861971 +/- 0.00786          Node   312.27661 +/- 0.31
e   0.0779712 +/- 0.00403           Incl.   19.72719 +/- 0.40
P   2.43/888.41d           H 19.5   G  0.15   U  8.8  
q 1.66759929 +/- 0.000714    Q 1.94964013 +/- 0.0156
From 10 observations 2019 July 6-12; mean residual 0".07
Residuals in arcseconds: 
190706 F51  .08-  .03-    190708 474  .08+  .07-    190712 568  .02-  .01+    
190706 F51  .07+  .08+    190708 474  .08-  .13-    190712 568  .02+  .00     
190706 F51  .01+  .05-    190708 474  .00   .00     
190708 474  .00   .20+    190712 568  .01+  .01-    

Ephemerides (geocentric):
Date (UTC) HH   RA              Dec         delta   r     elong  mag " sig PA
---- -- -- --  -------------   -----------  ------ ------ -----  --- ---- ---
2019 07 12 21  19 50 36.210   -36 27 12.39  .94761 1.9465 164.6 21.4 .322  24
2019 07 12 22  19 50 31.523   -36 26 50.65  .94756 1.9464 164.6 21.4 .337  24
2019 07 12 23  19 50 26.836   -36 26 28.88  .94751 1.9464 164.6 21.4 .353  25
2019 07 13 00  19 50 22.148   -36 26 07.07  .94746 1.9464 164.6 21.4 .370  26
2019 07 13 01  19 50 17.460   -36 25 45.23  .94742 1.9464 164.6 21.4 .386  26
2019 07 13 02  19 50 12.771   -36 25 23.35  .94737 1.9464 164.7 21.4 .403  27
2019 07 13 03  19 50 08.082   -36 25 01.43  .94732 1.9464 164.7 21.4 .420  27
2019 07 13 04  19 50 03.393   -36 24 39.47  .94728 1.9464 164.7 21.4 .437  28
2019 07 13 05  19 49 58.703   -36 24 17.48  .94723 1.9464 164.7 21.4 .455  28
2019 07 13 06  19 49 54.013   -36 23 55.46  .94718 1.9464 164.7 21.4 .473  28
2019 07 13 07  19 49 49.322   -36 23 33.39  .94714 1.9464 164.8 21.4 .491  29
2019 07 13 08  19 49 44.631   -36 23 11.29  .94709 1.9464 164.8 21.4 .509  29
2019 07 13 09  19 49 39.940   -36 22 49.15  .94705 1.9464 164.8 21.4 .527  30
2019 07 13 10  19 49 35.249   -36 22 26.98  .94701 1.9463 164.8 21.4 .546  30
2019 07 13 11  19 49 30.557   -36 22 04.77  .94696 1.9463 164.8 21.4 .565  30
2019 07 13 12  19 49 25.865   -36 21 42.52  .94692 1.9463 164.8 21.4 .584  31
2019 07 13 13  19 49 21.172   -36 21 20.24  .94688 1.9463 164.9 21.4 .604  31
2019 07 13 14  19 49 16.479   -36 20 57.92  .94683 1.9463 164.9 21.4 .623  31
2019 07 13 15  19 49 11.786   -36 20 35.57  .94679 1.9463 164.9 21.4 .643  31
2019 07 13 16  19 49 07.093   -36 20 13.17  .94675 1.9463 164.9 21.4 .664  32
2019 07 13 17  19 49 02.400   -36 19 50.75  .94671 1.9463 164.9 21.4 .684  32
2019 07 13 18  19 48 57.706   -36 19 28.28  .94667 1.9463 164.9 21.4 .705  32
2019 07 13 19  19 48 53.012   -36 19 05.78  .94663 1.9463 164.9 21.4 .726  33
2019 07 13 20  19 48 48.318   -36 18 43.24  .94659 1.9463 165.0 21.4 .747  33
2019 07 13 21  19 48 43.624   -36 18 20.67  .94655 1.9463 165.0 21.4 .769  33
2019 07 13 22  19 48 38.930   -36 17 58.06  .94651 1.9462 165.0 21.4 .790  33
2019 07 13 23  19 48 34.235   -36 17 35.41  .94647 1.9462 165.0 21.4 .812  34
2019 07 14 00  19 48 29.540   -36 17 12.73  .94644 1.9462 165.0 21.4 .835  34
2019 07 14 01  19 48 24.846   -36 16 50.01  .94640 1.9462 165.0 21.4 .857  34
2019 07 14 02  19 48 20.151   -36 16 27.25  .94636 1.9462 165.0 21.4 .880  34
2019 07 14 03  19 48 15.456   -36 16 04.46  .94632 1.9462 165.1 21.4 .903  35
2019 07 14 04  19 48 10.761   -36 15 41.63  .94629 1.9462 165.1 21.4 .926  35
2019 07 14 05  19 48 06.065   -36 15 18.77  .94625 1.9462 165.1 21.4 .950  35
2019 07 14 06  19 48 01.370   -36 14 55.87  .94622 1.9462 165.1 21.4 .974  35
2019 07 14 07  19 47 56.675   -36 14 32.93  .94618 1.9462 165.1 21.4 1.00  35
2019 07 14 08  19 47 51.979   -36 14 09.96  .94615 1.9462 165.1 21.4 1.02  36
2019 07 14 09  19 47 47.284   -36 13 46.95  .94611 1.9462 165.1 21.4 1.05  36
2019 07 14 10  19 47 42.589   -36 13 23.90  .94608 1.9461 165.1 21.4 1.07  36
2019 07 14 11  19 47 37.893   -36 13 00.82  .94605 1.9461 165.2 21.4 1.10  36
2019 07 14 12  19 47 33.198   -36 12 37.70  .94601 1.9461 165.2 21.4 1.12  36
2019 07 14 13  19 47 28.502   -36 12 14.55  .94598 1.9461 165.2 21.4 1.15  37
2019 07 14 14  19 47 23.807   -36 11 51.36  .94595 1.9461 165.2 21.4 1.17  37
2019 07 14 15  19 47 19.112   -36 11 28.14  .94592 1.9461 165.2 21.4 1.20  37
2019 07 14 16  19 47 14.416   -36 11 04.87  .94589 1.9461 165.2 21.4 1.23  37
2019 07 14 17  19 47 09.721   -36 10 41.58  .94586 1.9461 165.2 21.4 1.25  37
2019 07 14 18  19 47 05.026   -36 10 18.24  .94583 1.9461 165.2 21.4 1.28  38
2019 07 14 19  19 47 00.331   -36 09 54.87  .94580 1.9461 165.2 21.4 1.31  38
2019 07 14 20  19 46 55.636   -36 09 31.47  .94577 1.9461 165.3 21.4 1.33  38